DELTA 1 DEB

Satellite information

Favourite Embed

Satellite Type and Status

DEBRISIN ORBIT

Key statistics

Satellite DELTA 1 DEB at a glance.

Uptime

18289

Days in orbit

Revolutions

≈ 13.7

Per day

Orbit

SSO

Sun Synchronous Orbit

Inclination

99.9

Latest

Satellite identification and parameters

Extended collection of information and parameters for DELTA 1 DEB.

Object identification

Identified? True

Debris? True

Object name: DELTA 1 DEB

International designator: 1975-052KK

Object number (NORAD): 26831

Object ID (CCSDS): 26831

Country: UNITED STATES OF AMERICA (US)

Current information (Y/N): Y

RCS size: SMALL

Orbital parameters

Period: 104.805 minutes

Inclination: 99.8592 deg

SMA: 7363.467 km

Apoapsis: 1032.688 km

Periapsis: 937.976 km

RAAN: 245.273 deg

Eccentricy: 0.0064312

Argument of periapsis: 200.4156 deg

Mean anomaly: 281.6075 deg

Mean motion: 13.7397627 rev/day

Mean motion (dot): 0.0000275 rev/day2

B* drag term: 0.0029364 1/REarth

Two-line elements (TLE)

Creation date: June 25, 2025, 6:19 p.m.

Reference frame: TEME

Reference center: EARTH

Epoch: June 25, 2025, 12:32 a.m. UTC

TLE line 0: 0 DELTA 1 DEB

TLE line 1: 1 26831U 75052KK 25176.02238605 .00002750 00000-0 29364-2 0 9996

TLE line 2: 2 26831 99.8592 245.2730 0064312 200.4156 281.6075 13.73976270605309

Live tracking on map

Real-time ground track for satellite DELTA 1 DEB.

In-orbit conjunctions

A list of the most updated potential collisions computed for object DELTA 1 DEB.

Target Orbit TCA Probability of collision Miss distance Type
COSMOS 1308 LEO 2025-07-06 04:29:27 0.0001418373 274.0 (m) PAYLOAD
COSMOS 700 LEO 2024-09-08 11:42:13 0.0001411012 863.0 (m) PAYLOAD

Associated space launch

Experimental meteorological satellite

DELTA 1 DEB was lifted into orbit during the mission ‘Delta 2910 | Nimbus 6’, on board a Delta 2910 space rocket.

The launch took place on June 12, 1975, 8:12 a.m. from Space Launch Complex 2W.

For more information about the launch, click the button.

Launch to space Delta 2910 | Nimbus 6
Delta 2910 | Nimbus 6

Agency: N/A

Status: Launch Successful

Launch date: June 12, 1975, 8:12 a.m. UTC

Rocket: Delta 2910

Launch pad: Space Launch Complex 2W

Location: Vandenberg SFB, CA, USA

...

Latest news about this satellite

There are no fresh news available about this satellite. Check back as we update our databases every day.


Newsletter sign-up

Weekly statistics, charts and insights to help you stay on top of the space industry.